SCP
-0 -0 -0 -0 -0 -0 -0 -0 -0 0 0 -0 0 0 0 0 -0 0 -0 -0 -0 -0 -0 -0 -0 -0 -0 -0 -0 0 0 0 0 0 0 -0 -0 -0 -0 -0 0 -0 -0 -0 -0 -0 -0 -0 -0
0 0 -0 -0 0 -0 0 -0 0 -0 0 -0 -0 0 0 0 0 0 -0 -0 -0 -0 -0 -0 -0 -0 -0 -0 -0 -0 0 0 0 0 0 0 0 0 0 0 0 -0 0 0 0 -0 -0 -0 -0
0 0 -0 -0 0 0 0 -0 0 0 0 0 0 -0 0 -0 -0 -0 0 -0 -0 -0 -0 -0 -0 -0 -0 -0 -0 -0 -0 0 0 0 0 -0 -0 0 -0 -0 0 0 -0 0 0 0 0 -0 -0
0 0 0 -0 -0 -0 0 0 -0 0 -0 0 0 -0 0 0 -0 -0 -0 -0 -0 -0 -0 -1 -1 -0 -0 -0 -0 -0 -0 -0 0 0 0 -0 -0 -0 0 0 0 -0 -0 -0 0 0 0 0 0
-0 0 -0 -0 0 -0 -0 -0 -0 0 -0 0 0 0 0 0 -0 -0 -0 -0 -0 -0 -0 -0 -1 -0 -0 -0 -0 -0 -0 -0 -0 0 0 0 -0 -0 -0 -0 0 -0 -0 -0 0 -0 -0 -0 -0
0 0 0 0 -0 -0 -0 -0 0 0 0 0 0 0 -0 -0 -0 -0 -0 -0 -0 -0 -0 -0 -0 -0 -0 -0 -0 -0 -0 -0 -0 0 0 0 -0 -0 -0 -0 -0 -0 -0 -0 -0 -0 -0 -0 -0
0 0 0 0 0 -0 0 0 0 0 0 0 0 0 0 -0 -0 -0 -0 -0 -0 -0 -0 -0 -0 -0 -0 -0 -0 -0 -0 -0 -0 -0 0 -0 -0 -0 -0 -0 -0 -0 -0 -0 -0 -0 -0 -0 -0
0 0 0 0 0 0 0 0 -0 0 0 0 0 0 -0 -0 -0 -0 -0 -0 0 -0 -0 -0 0 0 0 0 0 0 0 0 0 0 -0 -0 -0 -0 -0 -0 -0 -0 -0 -0 -0 -0 -0 -0 -0
0 0 0 0 0 0 0 0 0 -0 0 0 0 0 0 0 -0 0 0 0 0 0 0 0 0 0 0 0 0 0 0 0 0 0 0 -0 -0 -0 -0 -0 -0 -0 -0 -0 -0 -0 -0 -0 -0
0 0 0 -0 -0 0 0 -0 -0 -0 0 0 0 0 0 -0 0 0 0 0 0 -0 0 0 0 0 0 0 0 0 0 -0 -0 -0 -0 -0 -0 -0 -0 -0 -0 -0 -0 -0 -0 -0 -0 -0 -0
0 0 0 -0 -0 0 0 0 -0 -0 -0 -0 0 0 0 0 0 0 0 0 -0 0 0 0 0 0 0 0 0 0 0 0 0 0 -0 -0 -0 -0 -0 -0 -0 -0 -0 -0 -0 -0 -0 -0 -0
0 0 0 0 -0 0 0 0 0 -0 -0 -0 -0 0 0 0 0 0 0 0 0 0 0 0 0 0 0 0 0 0 0 0 0 0 0 0 0 -0 -0 0 -0 -0 -0 -0 -0 -0 -0 -0 -0
0 0 0 0 0 0 0 0 0 -0 -0 -0 0 0 0 0 0 1 1 0 0 0 0 0 0 -0 0 0 0 0 0 0 0 0 0 0 0 0 0 0 0 0 0 -0 -0 -0 -0 -0 -0
0 0 0 0 0 0 0 0 0 -0 0 0 -0 0 -0 -0 0 0 0 0 -0 -0 -0 0 0 0 0 0 0 0 0 0 0 0 0 0 0 0 0 0 0 0 0 0 0 0 0 -0 -0
0 0 0 0 0 -0 -0 0 0 -0 0 0 0 0 -0 -0 0 0 0 0 0 0 -0 0 0 0 0 0 0 0 0 0 0 0 0 0 0 0 0 0 0 0 0 0 0 0 0 0 -0
-0 -0 -0 0 0 -0 0 0 0 0 -0 0 0 0 -0 -0 0 0 0 0 0 0 0 0 0 0 0 0 1 1 0 0 0 0 0 0 0 0 0 0 0 0 0 0 0 0 0 0 0
0 0 0 0 -0 0 0 0 -0 -0 -0 0 0 0 0 0 0 0 0 0 0 0 0 0 0 0 0 0 0 0 0 0 0 0 0 0 0 0 0 0 0 0 0 0 0 0 0 0 0
0 0 0 0 0 0 0 0 0 0 0 0 0 0 0 0 0 0 0 0 0 0 0 0 0 0 0 0 0 0 1 1 0 0 1 1 1 0 0 0 0 0 0 0 0 0 0 0 0
-0 -0 0 0 0 0 0 0 -0 0 0 0 0 0 0 -0 0 -0 0 0 0 0 0 0 0 0 0 0 0 0 0 1 0 -1 -0 0 1 1 1 0 0 0 0 0 0 0 1 0 0
0 -0 0 0 0 0 0 0 0 0 0 0 0 0 0 0 0 0 0 0 0 0 0 0 0 0 0 0 0 1 0 0 0 0 0 0 1 1 1 0 0 0 0 0 1 1 0 0 0
0 -0 0 0 0 0 0 0 0 0 0 0 0 0 0 0 0 0 0 0 0 0 0 0 0 0 0 0 0 0 0 0 0 0 0 0 0 0 0 0 0 0 0 0 0 0 0 0 0
0 0 0 0 0 0 0 0 0 0 0 0 0 0 0 0 0 0 0 0 0 0 0 0 0 0 0 0 0 0 0 0 0 -0 -0 -0 0 0 0 0 0 0 0 0 -0 0 0 0 0
0 0 0 0 0 0 0 0 0 0 0 0 0 0 0 0 0 0 0 0 0 0 0 0 0 0 0 0 0 0 0 0 0 0 0 0 -0 -0 0 0 0 0 0 0 0 0 0 0 0
0 0 0 0 0 0 0 0 0 0 0 0 0 0 0 0 0 -0 -0 0 0 0 0 0 0 0 0 0 0 0 0 0 0 0 0 0 -0 0 0 0 0 0 0 0 0 0 0 0 0
0 0 0 0 0 0 0 0 0 0 0 0 0 0 0 -0 -0 -0 -0 -0 -0 0 0 0 0 0 0 0 0 0 0 0 0 0 0 0 0 0 0 0 0 0 0 0 0 0 0 0 0
0 0 0 0 0 0 0 0 0 0 0 0 0 0 0 -0 -0 -0 -0 -0 -0 0 0 0 0 0 0 0 0 0 0 0 0 0 0 0 0 0 0 0 0 0 0 0 0 0 0 0 0
0 0 0 0 0 0 0 0 0 0 0 0 0 0 -0 -0 -0 -0 -0 -0 -0 -0 -0 0 0 0 0 0 0 0 0 0 0 0 0 0 0 0 0 0 0 0 0 0 0 0 0 0 0
0 0 0 0 0 0 0 0 0 0 0 0 0 -0 -0 -0 -0 -0 -0 -0 -0 0 0 0 0 0 0 0 0 0 0 0 -0 -0 0 0 0 0 0 0 0 0 0 0 0 0 0 0 0
0 0 0 0 0 0 0 0 0 0 0 0 0 0 0 0 0 0 0 0 0 0 0 0 0 0 0 0 0 -0 -0 -0 -0 -0 -0 -0 -0 0 0 0 0 0 0 0 0 0 0 0 0
0 0 0 0 0 0 0 0 0 0 0 0 0 0 0 0 0 0 0 0 0 0 0 0 0 0 0 0 0 -0 -0 -0 -0 -0 -0 -0 -0 -0 0 0 0 0 0 0 0 0 0 0 0
Wind_Speed_500mb
18 15 16 11 8 9 6 10 3 26 10 51 27 14 14 9 7 9 49 55 62 54 54 47 39 34 31 30 32 31 31 32 32 31 30 27 24 22 23 23 25 26 31 34 36 36 34 34 35
11 5 9 2 8 4 11 8 17 29 38 35 29 3 20 8 23 40 69 56 57 53 54 48 42 38 34 31 31 30 29 29 30 29 28 26 24 22 21 21 23 25 28 30 31 32 34 32 26
7 7 5 8 7 8 10 12 15 22 51 47 16 21 13 11 32 68 48 71 63 56 54 49 43 39 37 34 32 30 27 28 27 26 25 22 20 19 18 18 20 23 24 26 27 30 30 25 20
9 1 2 8 8 16 16 18 12 20 31 6 40 13 20 9 52 44 62 68 62 58 54 48 43 40 37 35 32 29 27 26 26 24 23 21 18 17 15 14 15 18 22 23 24 25 25 23 18
13 1 7 2 9 15 21 50 20 12 25 15 27 7 8 24 30 49 58 61 59 59 53 47 42 40 38 35 33 29 27 25 24 23 22 20 17 15 13 13 14 15 18 21 23 23 22 20 18
5 3 9 6 12 12 13 24 15 31 44 40 34 17 9 29 34 58 51 55 51 52 52 47 42 39 37 36 34 32 28 26 24 23 21 19 17 14 12 10 11 13 16 21 22 22 22 21 20
8 8 7 7 13 14 9 18 15 30 19 11 31 11 25 45 47 49 41 43 48 47 49 47 44 40 37 36 34 31 28 25 24 22 21 19 17 14 12 10 8 9 12 17 22 22 22 21 20
4 9 9 7 9 11 26 21 19 48 17 42 9 11 18 48 43 40 30 37 51 48 44 45 45 42 39 37 32 30 29 26 23 21 20 19 17 15 14 12 9 8 9 13 17 19 20 19 21
6 8 6 8 8 9 24 15 36 29 44 25 25 48 54 50 46 43 41 40 42 41 41 39 40 40 36 34 32 30 26 23 22 20 19 17 15 17 14 11 9 10 10 11 15 18 19 22 24
6 7 12 8 9 7 25 12 18 20 42 35 45 39 67 62 52 42 43 43 41 36 35 40 39 38 36 34 32 28 26 26 24 21 19 19 18 19 15 12 11 12 14 16 20 23 26 23 21
2 9 11 7 9 28 20 22 4 39 7 50 52 54 65 64 54 38 43 38 29 27 23 28 36 35 37 36 33 31 28 26 25 25 23 22 25 24 17 15 15 15 19 22 23 23 21 15 14
4 17 13 14 11 9 7 13 6 30 33 34 35 41 42 44 34 25 14 34 42 37 28 20 23 37 39 36 36 34 32 30 30 29 27 29 28 27 22 17 16 14 14 18 17 14 13 10 17
5 5 6 11 9 8 4 12 14 22 38 30 30 28 32 29 28 21 11 25 32 41 32 33 30 31 28 29 35 33 30 28 32 35 32 33 36 33 24 16 19 17 17 13 18 18 11 6 13
12 7 11 8 11 5 7 4 11 23 38 43 43 46 34 24 17 19 18 34 14 25 28 41 43 43 41 29 27 31 28 27 30 36 31 33 32 35 33 27 25 26 26 26 26 25 23 15 12
6 9 14 11 5 4 2 11 6 21 49 63 63 59 56 41 29 22 18 27 44 45 54 30 46 53 53 46 35 33 40 37 36 33 31 28 31 31 36 40 35 33 31 30 29 35 37 36 25
13 11 8 13 7 8 9 16 18 36 69 58 70 65 60 56 43 31 15 18 32 51 52 44 30 50 61 51 55 53 54 52 44 39 39 44 41 43 37 42 44 39 41 38 37 35 33 29 37
13 7 8 20 19 11 8 7 43 82 86 55 57 62 60 56 47 38 32 22 12 18 30 39 35 36 59 64 56 53 45 51 61 52 52 52 55 51 56 51 49 42 47 49 44 41 34 38 39
8 6 11 10 4 13 5 2 19 46 59 53 49 52 54 63 52 43 41 32 25 15 21 24 36 33 49 43 57 56 76 62 52 57 53 50 50 47 59 64 60 53 49 56 53 50 45 47 51
5 3 11 12 13 9 4 5 25 35 43 32 41 56 56 57 57 52 53 48 34 26 15 14 38 44 52 51 58 60 56 52 58 69 76 65 60 62 65 57 71 69 58 56 56 51 48 52 54
14 12 12 8 17 10 6 12 16 22 25 30 34 41 45 46 45 47 50 52 49 39 30 12 6 14 29 42 46 50 52 54 55 63 63 67 71 69 66 62 62 60 58 52 54 52 47 53 53
8 13 8 3 10 5 3 7 13 19 32 34 37 39 42 43 44 44 45 45 40 41 36 25 15 9 11 15 23 39 49 52 60 57 60 61 60 64 61 48 34 45 50 46 62 57 56 52 45
8 2 9 10 9 4 8 7 2 14 11 21 27 34 37 38 38 38 36 39 42 40 32 27 25 22 20 19 20 18 18 28 30 36 43 57 62 55 50 58 41 70 87 76 77 68 55 49 31
8 2 5 3 5 8 12 7 5 18 5 3 15 26 30 31 30 28 26 29 29 29 29 27 26 25 28 28 26 24 22 22 25 26 36 46 42 36 36 18 27 55 61 64 59 40 42 17 17
3 10 17 12 7 4 4 10 10 10 13 8 13 18 21 24 23 22 19 15 15 17 19 23 26 29 32 34 35 31 29 25 24 24 25 23 23 25 19 7 31 33 41 33 41 41 47 64 45
18 13 7 9 8 11 10 8 5 15 24 24 28 26 19 16 16 17 15 13 12 10 11 16 22 28 32 33 33 34 33 33 34 35 29 26 20 12 14 8 11 13 10 22 39 56 70 58 72
6 11 10 9 5 10 12 3 7 20 42 43 41 32 21 12 9 10 12 11 7 1 4 13 19 22 25 26 26 27 29 32 34 35 36 32 28 24 18 11 16 12 9 7 14 27 32 29 47
7 3 10 7 4 5 3 7 7 13 17 29 39 35 27 18 14 9 7 6 5 3 4 11 13 15 15 19 22 25 29 31 33 31 26 21 20 18 13 10 8 10 10 12 8 8 6 12 25
10 7 6 7 5 6 8 9 7 20 21 16 27 40 35 30 30 26 20 15 9 3 7 7 6 6 10 15 21 27 32 37 37 34 33 29 24 19 13 6 5 6 11 10 9 8 10 7 11
8 5 9 8 8 8 4 10 10 17 24 29 38 54 50 43 37 32 28 23 15 4 5 7 2 1 6 8 12 21 26 33 38 39 41 40 34 29 24 21 17 11 8 6 17 18 16 11 11
5 6 8 9 11 3 7 11 7 21 32 48 56 58 52 45 40 40 35 29 21 10 4 3 5 4 5 10 14 19 27 33 36 40 43 45 43 36 33 31 26 21 21 23 15 16 16 19 16
Wind_Direction_500mb
308 293 291 296 52 62 262 223 208 184 211 237 267 265 130 104 125 166 144 162 164 157 153 157 152 149 148 142 139 137 131 128 124 120 121 124 126 126 124 122 119 120 126 128 128 126 125 125 121
316 279 247 252 94 52 272 197 191 191 217 167 177 101 61 70 117 146 156 164 164 159 155 159 155 151 149 144 141 140 137 134 132 129 129 129 129 128 132 134 133 134 140 142 142 140 139 135 131
329 271 192 130 126 188 236 222 180 188 186 175 135 100 81 101 134 147 165 163 164 160 157 159 158 153 149 146 143 141 142 139 137 136 135 135 135 134 135 140 148 151 154 156 155 155 152 147 145
338 339 93 74 276 263 232 258 199 173 213 214 126 67 94 143 144 158 159 161 164 159 159 160 159 155 151 146 144 143 142 142 140 139 139 139 139 140 143 147 155 165 169 170 170 175 181 186 179
338 296 54 332 253 265 259 249 177 156 183 155 122 94 64 150 164 160 160 164 169 160 161 160 161 157 153 149 146 146 142 139 136 135 135 135 137 140 147 156 162 173 182 183 184 184 185 184 179
331 72 47 308 265 271 249 236 73 109 115 115 97 86 51 149 166 158 160 163 175 165 163 162 164 162 158 156 154 153 149 145 141 135 129 126 128 131 138 152 163 172 182 189 192 194 194 191 188
127 78 214 268 286 308 307 46 91 103 133 46 124 95 143 152 154 152 155 167 179 174 168 167 168 168 167 165 163 162 156 154 147 141 136 131 128 127 128 135 146 163 178 187 190 193 197 198 191
12 99 333 326 323 355 354 69 85 105 96 118 102 132 157 156 151 151 150 170 177 181 178 175 175 176 176 174 174 173 167 166 163 156 149 144 139 135 135 128 128 141 164 178 186 187 186 187 189
223 63 326 287 324 294 359 70 73 100 93 74 102 141 156 156 167 166 165 163 172 183 189 188 187 185 185 186 184 187 184 181 181 176 167 163 153 148 136 132 123 119 127 153 163 169 168 168 172
82 98 216 227 255 39 46 74 99 100 99 99 122 136 158 162 177 178 178 179 178 182 192 203 200 196 195 199 202 202 203 202 201 199 194 187 179 167 155 143 143 136 126 127 137 145 153 162 168
205 195 151 251 60 43 28 62 97 114 34 151 155 154 165 159 162 174 189 202 203 197 198 201 215 216 214 215 213 216 220 223 224 221 217 213 205 194 173 157 161 160 149 143 145 151 161 180 212
277 248 220 182 81 58 40 101 72 137 160 153 172 158 142 148 140 131 128 215 214 208 217 224 224 228 228 227 228 231 231 236 238 236 234 232 227 227 213 182 165 168 172 182 185 185 191 214 225
163 291 98 96 88 73 115 317 136 167 159 153 111 106 98 103 120 129 114 191 218 228 228 226 232 230 233 234 238 235 236 248 259 253 248 245 244 243 236 213 203 203 204 205 207 209 206 207 224
311 95 33 17 10 339 144 224 91 185 153 103 114 97 104 112 142 169 116 136 165 189 227 233 233 230 234 240 249 240 247 258 269 251 253 245 247 251 253 239 229 232 237 235 249 242 236 224 236
303 16 0 313 298 289 104 345 233 173 109 102 102 92 84 89 121 151 198 204 200 236 249 229 225 228 234 242 255 261 259 258 265 257 249 247 247 256 254 256 245 241 250 246 258 260 256 248 243
15 48 27 292 84 227 99 282 289 145 120 105 104 98 88 80 85 92 115 194 237 259 237 235 229 242 230 239 236 238 241 256 261 266 262 260 259 259 255 257 253 252 251 251 253 263 256 257 247
3 255 246 299 209 142 109 276 51 124 122 119 113 108 99 90 90 97 103 112 90 224 225 230 251 239 227 234 231 249 251 249 259 263 263 267 258 261 256 258 258 265 250 251 254 262 258 252 251
273 316 279 218 227 75 88 53 68 117 120 121 118 115 107 101 98 91 91 89 93 92 210 204 215 216 214 234 235 267 256 247 254 259 259 258 259 264 261 259 260 262 263 247 250 255 263 265 266
240 6 20 15 0 98 114 41 116 104 99 99 112 122 126 115 105 91 85 81 77 86 100 181 207 217 229 241 245 260 244 259 262 274 266 260 262 267 265 271 257 254 257 255 252 254 266 268 269
33 56 356 341 4 74 32 53 104 85 86 100 89 81 85 86 82 75 70 66 64 62 62 60 312 249 248 239 242 259 255 255 268 272 268 259 256 258 258 257 249 249 260 265 253 254 255 260 269
31 80 67 96 309 50 108 0 102 68 85 87 84 84 77 72 70 63 50 46 45 43 42 46 53 31 0 312 285 260 260 262 261 274 275 266 255 255 255 253 250 253 266 272 270 252 250 262 259
76 350 53 22 61 261 77 267 141 110 60 68 76 73 72 66 61 56 51 46 42 41 35 32 36 35 29 13 346 336 325 312 326 322 314 304 304 302 271 269 301 273 278 273 297 280 263 255 274
183 42 24 323 20 45 352 70 292 115 92 106 100 84 74 72 63 62 57 51 47 47 43 33 29 40 38 30 26 13 9 9 2 349 329 320 328 328 329 292 230 238 245 259 270 238 246 298 300
317 27 17 35 77 3 221 180 211 195 177 152 135 117 98 89 81 77 63 62 61 43 35 22 17 18 22 11 9 11 18 15 5 9 17 11 355 347 329 235 209 243 262 270 238 228 278 265 254
64 58 355 354 7 223 297 71 246 123 139 159 166 165 144 116 86 76 81 89 75 52 12 5 8 2 5 13 15 19 19 14 18 19 14 9 15 4 355 333 238 283 290 274 260 258 254 255 259
72 134 150 224 229 274 335 146 201 154 162 164 163 160 155 140 95 88 83 85 92 131 315 353 0 15 25 30 33 29 26 24 24 25 24 24 24 22 11 334 305 312 304 358 316 264 255 242 232
312 9 177 127 322 74 204 69 45 158 165 165 167 171 179 180 185 167 179 172 181 219 345 357 11 35 41 48 51 52 52 48 42 36 30 26 22 25 16 18 1 350 322 7 5 21 357 292 276
149 173 41 7 201 239 286 208 218 189 186 188 186 194 200 207 210 209 206 200 199 225 346 1 41 44 76 72 62 52 42 34 30 26 28 28 23 15 6 5 1 320 325 357 12 13 20 339 301
6 38 65 115 139 167 311 280 235 180 189 194 203 207 209 216 217 216 210 209 214 214 340 302 290 112 99 79 38 14 19 16 16 20 23 18 13 11 5 355 343 337 332 311 279 295 300 319 288
144 130 114 117 276 131 152 269 234 187 188 196 211 213 219 222 226 221 211 216 231 228 257 272 209 199 276 326 350 15 13 15 20 23 23 21 18 15 14 8 353 329 319 323 321 327 317 301 310
Wind_Speed_850mb
18 15 16 11 8 9 6 10 3 26 10 51 27 14 14 9 7 9 49 55 62 54 54 47 39 34 31 30 32 31 31 32 32 31 30 27 24 22 23 23 25 26 31 34 36 36 34 34 35
11 5 9 2 8 4 11 8 17 29 38 35 29 3 20 8 23 40 69 56 57 53 54 48 42 38 34 31 31 30 29 29 30 29 28 26 24 22 21 21 23 25 28 30 31 32 34 32 26
7 7 5 8 7 8 10 12 15 22 51 47 16 21 13 11 32 68 48 71 63 56 54 49 43 39 37 34 32 30 27 28 27 26 25 22 20 19 18 18 20 23 24 26 27 30 30 25 20
9 1 2 8 8 16 16 18 12 20 31 6 40 13 20 9 52 44 62 68 62 58 54 48 43 40 37 35 32 29 27 26 26 24 23 21 18 17 15 14 15 18 22 23 24 25 25 23 18
13 1 7 2 9 15 21 50 20 12 25 15 27 7 8 24 30 49 58 61 59 59 53 47 42 40 38 35 33 29 27 25 24 23 22 20 17 15 13 13 14 15 18 21 23 23 22 20 18
5 3 9 6 12 12 13 24 15 31 44 40 34 17 9 29 34 58 51 55 51 52 52 47 42 39 37 36 34 32 28 26 24 23 21 19 17 14 12 10 11 13 16 21 22 22 22 21 20
8 8 7 7 13 14 9 18 15 30 19 11 31 11 25 45 47 49 41 43 48 47 49 47 44 40 37 36 34 31 28 25 24 22 21 19 17 14 12 10 8 9 12 17 22 22 22 21 20
4 9 9 7 9 11 26 21 19 48 17 42 9 11 18 48 43 40 30 37 51 48 44 45 45 42 39 37 32 30 29 26 23 21 20 19 17 15 14 12 9 8 9 13 17 19 20 19 21
6 8 6 8 8 9 24 15 36 29 44 25 25 48 54 50 46 43 41 40 42 41 41 39 40 40 36 34 32 30 26 23 22 20 19 17 15 17 14 11 9 10 10 11 15 18 19 22 24
6 7 12 8 9 7 25 12 18 20 42 35 45 39 67 62 52 42 43 43 41 36 35 40 39 38 36 34 32 28 26 26 24 21 19 19 18 19 15 12 11 12 14 16 20 23 26 23 21
2 9 11 7 9 28 20 22 4 39 7 50 52 54 65 64 54 38 43 38 29 27 23 28 36 35 37 36 33 31 28 26 25 25 23 22 25 24 17 15 15 15 19 22 23 23 21 15 14
4 17 13 14 11 9 7 13 6 30 33 34 35 41 42 44 34 25 14 34 42 37 28 20 23 37 39 36 36 34 32 30 30 29 27 29 28 27 22 17 16 14 14 18 17 14 13 10 17
5 5 6 11 9 8 4 12 14 22 38 30 30 28 32 29 28 21 11 25 32 41 32 33 30 31 28 29 35 33 30 28 32 35 32 33 36 33 24 16 19 17 17 13 18 18 11 6 13
12 7 11 8 11 5 7 4 11 23 38 43 43 46 34 24 17 19 18 34 14 25 28 41 43 43 41 29 27 31 28 27 30 36 31 33 32 35 33 27 25 26 26 26 26 25 23 15 12
6 9 14 11 5 4 2 11 6 21 49 63 63 59 56 41 29 22 18 27 44 45 54 30 46 53 53 46 35 33 40 37 36 33 31 28 31 31 36 40 35 33 31 30 29 35 37 36 25
13 11 8 13 7 8 9 16 18 36 69 58 70 65 60 56 43 31 15 18 32 51 52 44 30 50 61 51 55 53 54 52 44 39 39 44 41 43 37 42 44 39 41 38 37 35 33 29 37
13 7 8 20 19 11 8 7 43 82 86 55 57 62 60 56 47 38 32 22 12 18 30 39 35 36 59 64 56 53 45 51 61 52 52 52 55 51 56 51 49 42 47 49 44 41 34 38 39
8 6 11 10 4 13 5 2 19 46 59 53 49 52 54 63 52 43 41 32 25 15 21 24 36 33 49 43 57 56 76 62 52 57 53 50 50 47 59 64 60 53 49 56 53 50 45 47 51
5 3 11 12 13 9 4 5 25 35 43 32 41 56 56 57 57 52 53 48 34 26 15 14 38 44 52 51 58 60 56 52 58 69 76 65 60 62 65 57 71 69 58 56 56 51 48 52 54
14 12 12 8 17 10 6 12 16 22 25 30 34 41 45 46 45 47 50 52 49 39 30 12 6 14 29 42 46 50 52 54 55 63 63 67 71 69 66 62 62 60 58 52 54 52 47 53 53
8 13 8 3 10 5 3 7 13 19 32 34 37 39 42 43 44 44 45 45 40 41 36 25 15 9 11 15 23 39 49 52 60 57 60 61 60 64 61 48 34 45 50 46 62 57 56 52 45
8 2 9 10 9 4 8 7 2 14 11 21 27 34 37 38 38 38 36 39 42 40 32 27 25 22 20 19 20 18 18 28 30 36 43 57 62 55 50 58 41 70 87 76 77 68 55 49 31
8 2 5 3 5 8 12 7 5 18 5 3 15 26 30 31 30 28 26 29 29 29 29 27 26 25 28 28 26 24 22 22 25 26 36 46 42 36 36 18 27 55 61 64 59 40 42 17 17
3 10 17 12 7 4 4 10 10 10 13 8 13 18 21 24 23 22 19 15 15 17 19 23 26 29 32 34 35 31 29 25 24 24 25 23 23 25 19 7 31 33 41 33 41 41 47 64 45
18 13 7 9 8 11 10 8 5 15 24 24 28 26 19 16 16 17 15 13 12 10 11 16 22 28 32 33 33 34 33 33 34 35 29 26 20 12 14 8 11 13 10 22 39 56 70 58 72
6 11 10 9 5 10 12 3 7 20 42 43 41 32 21 12 9 10 12 11 7 1 4 13 19 22 25 26 26 27 29 32 34 35 36 32 28 24 18 11 16 12 9 7 14 27 32 29 47
7 3 10 7 4 5 3 7 7 13 17 29 39 35 27 18 14 9 7 6 5 3 4 11 13 15 15 19 22 25 29 31 33 31 26 21 20 18 13 10 8 10 10 12 8 8 6 12 25
10 7 6 7 5 6 8 9 7 20 21 16 27 40 35 30 30 26 20 15 9 3 7 7 6 6 10 15 21 27 32 37 37 34 33 29 24 19 13 6 5 6 11 10 9 8 10 7 11
8 5 9 8 8 8 4 10 10 17 24 29 38 54 50 43 37 32 28 23 15 4 5 7 2 1 6 8 12 21 26 33 38 39 41 40 34 29 24 21 17 11 8 6 17 18 16 11 11
5 6 8 9 11 3 7 11 7 21 32 48 56 58 52 45 40 40 35 29 21 10 4 3 5 4 5 10 14 19 27 33 36 40 43 45 43 36 33 31 26 21 21 23 15 16 16 19 16
Wind_Direction_850mb
308 293 291 296 52 62 262 223 208 184 211 237 267 265 130 104 125 166 144 162 164 157 153 157 152 149 148 142 139 137 131 128 124 120 121 124 126 126 124 122 119 120 126 128 128 126 125 125 121
316 279 247 252 94 52 272 197 191 191 217 167 177 101 61 70 117 146 156 164 164 159 155 159 155 151 149 144 141 140 137 134 132 129 129 129 129 128 132 134 133 134 140 142 142 140 139 135 131
329 271 192 130 126 188 236 222 180 188 186 175 135 100 81 101 134 147 165 163 164 160 157 159 158 153 149 146 143 141 142 139 137 136 135 135 135 134 135 140 148 151 154 156 155 155 152 147 145
338 339 93 74 276 263 232 258 199 173 213 214 126 67 94 143 144 158 159 161 164 159 159 160 159 155 151 146 144 143 142 142 140 139 139 139 139 140 143 147 155 165 169 170 170 175 181 186 179
338 296 54 332 253 265 259 249 177 156 183 155 122 94 64 150 164 160 160 164 169 160 161 160 161 157 153 149 146 146 142 139 136 135 135 135 137 140 147 156 162 173 182 183 184 184 185 184 179
331 72 47 308 265 271 249 236 73 109 115 115 97 86 51 149 166 158 160 163 175 165 163 162 164 162 158 156 154 153 149 145 141 135 129 126 128 131 138 152 163 172 182 189 192 194 194 191 188
127 78 214 268 286 308 307 46 91 103 133 46 124 95 143 152 154 152 155 167 179 174 168 167 168 168 167 165 163 162 156 154 147 141 136 131 128 127 128 135 146 163 178 187 190 193 197 198 191
12 99 333 326 323 355 354 69 85 105 96 118 102 132 157 156 151 151 150 170 177 181 178 175 175 176 176 174 174 173 167 166 163 156 149 144 139 135 135 128 128 141 164 178 186 187 186 187 189
223 63 326 287 324 294 359 70 73 100 93 74 102 141 156 156 167 166 165 163 172 183 189 188 187 185 185 186 184 187 184 181 181 176 167 163 153 148 136 132 123 119 127 153 163 169 168 168 172
82 98 216 227 255 39 46 74 99 100 99 99 122 136 158 162 177 178 178 179 178 182 192 203 200 196 195 199 202 202 203 202 201 199 194 187 179 167 155 143 143 136 126 127 137 145 153 162 168
205 195 151 251 60 43 28 62 97 114 34 151 155 154 165 159 162 174 189 202 203 197 198 201 215 216 214 215 213 216 220 223 224 221 217 213 205 194 173 157 161 160 149 143 145 151 161 180 212
277 248 220 182 81 58 40 101 72 137 160 153 172 158 142 148 140 131 128 215 214 208 217 224 224 228 228 227 228 231 231 236 238 236 234 232 227 227 213 182 165 168 172 182 185 185 191 214 225
163 291 98 96 88 73 115 317 136 167 159 153 111 106 98 103 120 129 114 191 218 228 228 226 232 230 233 234 238 235 236 248 259 253 248 245 244 243 236 213 203 203 204 205 207 209 206 207 224
311 95 33 17 10 339 144 224 91 185 153 103 114 97 104 112 142 169 116 136 165 189 227 233 233 230 234 240 249 240 247 258 269 251 253 245 247 251 253 239 229 232 237 235 249 242 236 224 236
303 16 0 313 298 289 104 345 233 173 109 102 102 92 84 89 121 151 198 204 200 236 249 229 225 228 234 242 255 261 259 258 265 257 249 247 247 256 254 256 245 241 250 246 258 260 256 248 243
15 48 27 292 84 227 99 282 289 145 120 105 104 98 88 80 85 92 115 194 237 259 237 235 229 242 230 239 236 238 241 256 261 266 262 260 259 259 255 257 253 252 251 251 253 263 256 257 247
3 255 246 299 209 142 109 276 51 124 122 119 113 108 99 90 90 97 103 112 90 224 225 230 251 239 227 234 231 249 251 249 259 263 263 267 258 261 256 258 258 265 250 251 254 262 258 252 251
273 316 279 218 227 75 88 53 68 117 120 121 118 115 107 101 98 91 91 89 93 92 210 204 215 216 214 234 235 267 256 247 254 259 259 258 259 264 261 259 260 262 263 247 250 255 263 265 266
240 6 20 15 0 98 114 41 116 104 99 99 112 122 126 115 105 91 85 81 77 86 100 181 207 217 229 241 245 260 244 259 262 274 266 260 262 267 265 271 257 254 257 255 252 254 266 268 269
33 56 356 341 4 74 32 53 104 85 86 100 89 81 85 86 82 75 70 66 64 62 62 60 312 249 248 239 242 259 255 255 268 272 268 259 256 258 258 257 249 249 260 265 253 254 255 260 269
31 80 67 96 309 50 108 0 102 68 85 87 84 84 77 72 70 63 50 46 45 43 42 46 53 31 0 312 285 260 260 262 261 274 275 266 255 255 255 253 250 253 266 272 270 252 250 262 259
76 350 53 22 61 261 77 267 141 110 60 68 76 73 72 66 61 56 51 46 42 41 35 32 36 35 29 13 346 336 325 312 326 322 314 304 304 302 271 269 301 273 278 273 297 280 263 255 274
183 42 24 323 20 45 352 70 292 115 92 106 100 84 74 72 63 62 57 51 47 47 43 33 29 40 38 30 26 13 9 9 2 349 329 320 328 328 329 292 230 238 245 259 270 238 246 298 300
317 27 17 35 77 3 221 180 211 195 177 152 135 117 98 89 81 77 63 62 61 43 35 22 17 18 22 11 9 11 18 15 5 9 17 11 355 347 329 235 209 243 262 270 238 228 278 265 254
64 58 355 354 7 223 297 71 246 123 139 159 166 165 144 116 86 76 81 89 75 52 12 5 8 2 5 13 15 19 19 14 18 19 14 9 15 4 355 333 238 283 290 274 260 258 254 255 259
72 134 150 224 229 274 335 146 201 154 162 164 163 160 155 140 95 88 83 85 92 131 315 353 0 15 25 30 33 29 26 24 24 25 24 24 24 22 11 334 305 312 304 358 316 264 255 242 232
312 9 177 127 322 74 204 69 45 158 165 165 167 171 179 180 185 167 179 172 181 219 345 357 11 35 41 48 51 52 52 48 42 36 30 26 22 25 16 18 1 350 322 7 5 21 357 292 276
149 173 41 7 201 239 286 208 218 189 186 188 186 194 200 207 210 209 206 200 199 225 346 1 41 44 76 72 62 52 42 34 30 26 28 28 23 15 6 5 1 320 325 357 12 13 20 339 301
6 38 65 115 139 167 311 280 235 180 189 194 203 207 209 216 217 216 210 209 214 214 340 302 290 112 99 79 38 14 19 16 16 20 23 18 13 11 5 355 343 337 332 311 279 295 300 319 288
144 130 114 117 276 131 152 269 234 187 188 196 211 213 219 222 226 221 211 216 231 228 257 272 209 199 276 326 350 15 13 15 20 23 23 21 18 15 14 8 353 329 319 323 321 327 317 301 310